Sigfox identifier Datetime Temperature Humidity SNR
003BD52D 2018-10-09 09:02:26 20.6 38 13.8
003BD52D 2018-10-09 07:56:28 20.6 38 13.5
003BD52D 2018-10-09 05:44:25 20.6 38 13.4
003BD52D 2018-10-09 04:38:26 20.6 38 13.4
003BD52D 2018-10-09 01:20:32 20.6 38 12.5
003BD52D 2018-10-09 00:14:33 20.6 37 12.1
003BD52D 2018-10-08 23:08:34 20.6 37 11.7
003BD52D 2018-10-08 22:02:40 20.6 37 11.5
003BD52D 2018-10-08 20:56:40 20.6 37 11.6
003BD52D 2018-10-08 19:50:42 20.6 37 11.6
003BD52D 2018-10-08 18:44:45 20.6 37 11.4
003BD52D 2018-10-08 17:38:50 20.6 36 11.5
003BD52D 2018-10-08 16:32:52 20.7 36 11.5
003BD52D 2018-10-08 14:20:47 20.6 36 11.6
003BD52D 2018-10-08 13:14:49 20.6 36 11.6
003BD52D 2018-10-08 11:02:46 20.4 36 9.6
003BD52D 2018-10-08 09:56:48 20.4 36 9.5
003BD52D 2018-10-08 08:50:45 20.4 37 9.5
003BD52D 2018-10-08 07:44:44 20.4 37 9.3
003BD52D 2018-10-08 06:38:47 20.4 38 9.3
003BD52D 2018-10-08 05:32:46 20.4 38 9.3
003BD52D 2018-10-08 00:02:45 20.4 39 9.3
003BD52D 2018-10-07 20:44:44 20.6 40 12.6
003BD52D 2018-10-07 18:32:43 20.6 40 12.5
003BD52D 2018-10-07 17:26:47 20.6 40 12.6
003BD52D 2018-10-07 16:20:51 20.5 40 12.7
003BD52D 2018-10-07 15:14:51 20.5 40 12.9
003BD52D 2018-10-07 14:08:53 20.6 40 13
003BD52D 2018-10-07 11:56:54 20.6 41 13.1
003BD52D 2018-10-07 10:50:56 20.6 41 13.3
003BD52D 2018-10-07 07:32:50 20.6 41 13.5
003BD52D 2018-10-07 06:26:49 20.6 41 13.7
003BD52D 2018-10-07 04:14:52 20.6 41 13.8
003BD52D 2018-10-07 03:08:51 20.6 42 14
003BD52D 2018-10-07 00:56:53 20.6 42 14.2
003BD52D 2018-10-06 23:50:51 20.6 42 14.5
003BD52D 2018-10-06 22:44:50 20.6 42 14.7
003BD52D 2018-10-06 18:21:00 20.6 42 14.9
003BD52D 2018-10-06 17:15:00 20.6 42 15.1
003BD52D 2018-10-06 16:09:01 20.7 42 15.5
003BD52D 2018-10-06 13:57:08 20.6 42 16
003BD52D 2018-10-06 10:39:22 20.6 43 16.5
003BD52D 2018-10-06 07:21:35 20.7 43 17.2
003BD52D 2018-10-06 06:15:34 20.8 44 18.1
003BD52D 2018-10-06 02:57:46 20.8 44 19.3
003BD52D 2018-10-06 00:45:58 20.9 44 20.9
003BD52D 2018-10-05 21:27:57 21.2 45 23.9
003BD52D 2018-10-05 17:03:49 21.4 57 0